Regional Weather Roundup
Issued by NWS Wakefield, VA

Home | Current Version | Previous Version | Text Only | Print | Product List | Glossary Off
Versions: 1 2 3 4 5 6 7 8 9 10 11 12 13 14 15 16 17 18 19 20 21 22 23 24 25 26 27 28 29 30 31 32 33 34 35 36 37 38 39 40 41 42 43 44 45 46 47 48 49 50

000
ASUS41 KAKQ 181610
RWRAKQ

REGIONAL WEATHER ROUNDUP
NATIONAL WEATHER SERVICE WAKEFIELD VA
1100 AM EST THU DEC 18 2014

Note: "fair" indicates few or no clouds below 12,000 feet with no
significant weather and/or obstructions to visibility. * = Denotes
station may not report precipitation (e.g., rain,snow,etc.),
thunder or fog.

VAZ042-051-052>054-056-181700-
NORTHERN VIRGINIA

CITY           SKY/WX    TMP DP  RH WIND       PRES   REMARKS
WASH NATIONAL  PTSUNNY   40  19  43 NW13      30.19F
DULLES         PTSUNNY   35  20  54 NW13      30.18F
FORT BELVOIR   NOT AVBL
QUANTICO       MOSUNNY   41  21  44 NW13G22   30.20F
FREDERICKSBRG* SUNNY     41  23  47 NW12G17   30.17F
STAFFORD*      SUNNY     39  21  49 NW15      30.22F
WARRENTON      SUNNY     41  29  60 NW9G17    30.18F
CULPEPER*      MOSUNNY   39  21  48 N9        30.19F
MANASSAS*      PTSUNNY   37  23  56 N14G24    30.19S
LEESBURG*      CLOUDY    36  27  69 NW14G20   30.19S
WINCHESTER     CLOUDY    34  19  55 W15       30.17F WCI  24
FRONT ROYAL*   PTSUNNY   34  21  60 NW6       30.18S
LURAY*         MOSUNNY   37  23  56 W5        30.18S
$$

VAZ048-049-060>072-079>083-181700-
CENTRAL AND SOUTH CENTRAL VIRGINIA

CITY           SKY/WX    TMP DP  RH WIND       PRES   REMARKS
RICHMOND       MOSUNNY   43  22  43 N9        30.17F
CHESTERFIELD*  SUNNY     43  18  36 NW5       30.18F
PETERSBURG*    SUNNY     42  24  48 NW3       30.17F
HANOVER        FAIR      37  22  54 N3        30.19F
TAPPAHANNOCK*  FAIR      41  18  39 N8        30.17F
QUINTON*       MOSUNNY   40  23  49 N10G16    30.16F
CHARLOTTSVILLE MOSUNNY   40  21  46 VRB6      30.15F
GORDONSVILLE*  MOSUNNY   39  21  48 N3        30.16S
ORANGE*        SUNNY     39  25  56 NW9       30.18F
LOUISA*        MOSUNNY   39  23  52 N5        30.15F
BUMPASS*       MOSUNNY   38  22  52 NW6       30.16F
FARMVILLE*     SUNNY     50  22  33 NE3       30.15F
CREWE*         SUNNY     43  22  43 CALM      30.15F
FORT PICKETT*  SUNNY     42  23  46 N6        30.15F
CHASE CITY*    SUNNY     44  26  47 NW5       30.16F
CLARKSVILLE*   SUNNY     43  27  52 N6        30.17S
SOUTH HILL*    SUNNY     42  26  52 N5        30.21F
LAWRENCEVILLE* SUNNY     42  28  58 CALM      30.15F
EMPORIA*       SUNNY     41  27  56 NW3       30.18F
$$

VAZ088>098-181700-
SOUTHEAST VIRGINIA

CITY           SKY/WX    TMP DP  RH WIND       PRES   REMARKS
NORFOLK        SUNNY     42  24  49 N12       30.17F
VIRGINIA BEACH MOSUNNY   45  26  47 N17       30.16F
NORFOLK NAVAL  MOSUNNY   46  25  43 N10       30.18F
WEST POINT*    SUNNY     44  21  40 N8        30.19F
SALUDA*        FAIR      40  25  54 NW10      30.16F
NEWPORT NEWS   SUNNY     46  23  40 NW10      30.17F
LANGLEY AFB    SUNNY     42  23  47 N9        30.17F
FORT EUSTIS    SUNNY     43  24  48 N6        30.16F
WILLIAMSBURG*  SUNNY     48  27  43 NW6       30.18F
HR EXEC AP*    SUNNY     43  25  49 N6        30.19F
FRANKLIN*      SUNNY     43  27  52 NW3       30.18F
WAKEFIELD      SUNNY     43  24  47 N6        30.17F
$$

VAZ020-022-025-037-045-181700-
WEST CENTRAL AND SOUTHWEST VIRGINIA

CITY           SKY/WX    TMP DP  RH WIND       PRES   REMARKS
STAUNTON*      MOSUNNY   36  21  55 NE6       30.17F
WAYNESBORO*    MOSUNNY   35  20  56 NW5       30.14S
HOT SPRINGS VA SUNNY     25  19  76 W16       30.02F WCI  12
LYNCHBURG      MOSUNNY   38  22  52 W5        30.18R HAZE
DANVILLE       MOSUNNY   45  24  43 N12       30.19S
SOUTH BOSTON*  SUNNY     44  23  44 W3        30.18S
MARTINSVILLE   CLOUDY    41  23  49 CALM      30.21F
ROANOKE        CLOUDY    36  21  55 W8        30.19F
BLACKSBURG     PTSUNNY   31  22  69 W8        30.19S
DUBLIN*        CLOUDY    34  25  71 W7        30.17F
MARION*        CLOUDY    33  27  80 W9        30.17F
HILLSVILLE*    CLOUDY    31  22  70 NW10      30.13F WCI  22
RICHLANDS*     CLOUDY    31  23  73 CALM      30.16S
WISE*          MOSUNNY   36  27  69 CALM      30.15F
ABINGDON*      CLOUDY    35  29  79 CALM      30.18F
$$

MDZ021>025-VAZ099-100-181700-
SOUTHERN MARYLAND AND THE DELMARVA PENINSULA

CITY           SKY/WX    TMP DP  RH WIND       PRES   REMARKS
PATUXENT RIVER MOSUNNY   39  21  48 NW14      30.16F
BAY BRIDGE APT   N/A     37  21  52 NW13G18   30.16F
LEONARDTOWN    SUNNY     37  21  52 NW9       30.17F
DOVER          MOSUNNY   39  21  49 W13       30.09F
GEORGETOWN     SUNNY     40  20  44 NW12G21   30.12F
EASTON         MOSUNNY   41  23  48 NW12G20   30.18F
CAMBRIDGE      SUNNY     39  23  52 NW12G24   30.15S
SALISBURY      SUNNY     42  21  43 NW15      30.13F
OCEAN CITY     SUNNY     40  22  48 W10G21    30.11F
WALLOPS ISLAND MOSUNNY   40  24  53 N14       30.14F
ACCOMACK*      SUNNY     41  23  48 NW18      30.15F
$$

NCZ012>017-030>032-181700-
NORTH CENTRAL AND EASTERN NORTH CAROLINA

CITY           SKY/WX    TMP DP  RH WIND       PRES   REMARKS
ROANOKE RAPIDS SUNNY     43  28  56 N6        30.17F
RALEIGH        MOSUNNY   45  24  43 VRB6      30.18F
ELIZABETH CITY SUNNY     48  29  47 N7        30.16F
AHOSKIE*       SUNNY     41  28  59 NE6       30.18F
EDENTON*       SUNNY     43  30  60 NE3       30.18F
CURRITUCK*     SUNNY     44  27  50 NE9       30.16F
KILL DEVIL HLS SUNNY     45  31  59 N8        30.15S
MANTEO         SUNNY     45  31  57 N9        30.16F
CAPE HATTERAS  SUNNY     47  36  65 VRB7      30.16S
TARBORO*       SUNNY     44  30  56 NW3       30.19F
GOLDSBORO      SUNNY     45  34  65 CALM      30.17F
WASHINGTON     MOSUNNY   44  29  56 E5        30.18F
GREENVILLE     SUNNY     45  30  57 N3        30.19F
NEW BERN       MOSUNNY   48  32  53 NE7       30.19F
WILMINGTON     SUNNY     52  29  41 NE8       30.17F
$$

VAZ048-181700-
ELSEWHERE

CITY           SKY/WX    TMP DP  RH WIND       PRES   REMARKS
HARRISBURG PA  PTSUNNY   35  24  64 W15       30.11F
BALTIMORE      PTSUNNY   36  21  54 NW13G21   30.15F
ANNAPOLIS      PTSUNNY   38  22  52 NW13      30.16F
ANDREWS AFB    MOSUNNY   37  20  52 NW18      30.16F
PHILADELPHIA   CLOUDY    38  21  50 W14       30.10F
HENDERSON NC   SUNNY     44  23  44 N5        30.17F
GREENSBORO     PTSUNNY   46  23  40 N7        30.16S
ROCKY MOUNT    SUNNY     44  29  55 VRB3      30.18F
$$

VAZ100-181700-
MARINE

STATION/POSITION TIME  TEMP    WIND        PRES    WAVE   SWELL
                       AIR SEA DIR/SP/G            HT/PER HT/PER
                 (UTC) (F)     (DEG/KT/KT) (MB)    (FT/S) (FT/S)
CAPE MAY NJ      1600   38 42  320/ 21/ 28 1018.8F
LEWES DE         1600   38 43  320/ 16/ 19 1019.5S
15NM E FENWICK I 1600   38 47              1019.1F   4/ 5
OCEAN-CITY-INLET 1600   39 45  340/ 15/ 18 1019.5F
WACHAPREAGUE VA  1600   42 44  300/  3/ 10 1021.0S
THOMAS POINT MD  1600   36 42  300/ 18/ 20 1022.0F
GOOSES REEF MD   1600   38     VRB 17/ 21  1020.4F   2/ 3
COVE POINT MD    1600   36     340/ 15/ 19 1021.3S
SOLOMONS ISLAND  1600      44                N/A
BISHOPS HEAD MD  1600   38 40  330/ 14/ 20 1020.8F
PINEY POINT MD   1600          340/ 16/ 17   N/A
POTOMAC MD       1600   38 44  330/ 12/ 16 1020.6F   2/ 3
CAMBRIDGE MD     1600   37 41  310/ 14/ 17 1020.9F
LEWISETTA VA     1600   38 43  340/ 12/ 16 1021.4F
RAPPAHANNOCK LGT 1600          330/ 19/ 21 1021.4F
STINGRAY PT      1600   40 45  340/ 10/ 14 1021.6F   1/ 2
YORK RVR RNG VA  1600   40     360/ 11/ 13 1020.9F
YORKTOWN VA      1600   40 46  310/  9/ 11 1021.3F
JAMESTOWN VA     1600   40 46  340/  8/ 10   N/A     0
DOMINION TERM VA 1600   40     360/  6/  9 1021.6R
KIPTOPEKE VA     1600      50  340/ 17/ 20   N/A
CHES BAY BRIDGE  1600   40 46  330/ 13/ 16 1021.0R
CAPE HENRY VA    1600   40     340/ 17/ 20 1020.0S
CHESAPEAKE LGHT  1500   40     340/ 17/ 18 1021.7R
WILLOUBY STN VA  1600   40     350/  8/ 10 1021.9S
S CRANEY ISL VA  1600           10/  6/  8 1021.7R
CAPE HENRY BUOY  1500      49                N/A     4/ 5
1ST LANDING BUOY 1600   41 46  350/ 16/ 17 1021.0F   2/ 3
CAPE CHARLES BUO 1600      48                N/A     3/ 5   2/11
64NM E OF VA BCH 1600   43 54  340/ 17/ 21 1019.8F   6/ 6   2/11
DUCK PIER NC     1600   42 48   10/ 15/ 20 1020.2R
44100 DUCK FRF   1600      52                N/A     5/ 6
44056 DUCK FRF   1600      49                N/A     4/ 6
OREGON INLET NC  1600   45 51  350/ 10/ 13 1021.3R
HATTERAS NC      1600   46 55   10/ 11/ 15 1021.8S
DIAMOND SHLS NC  1600   49                 1021.3    3/ 5
CAPE LOOKOUT NC  1500   47      20/ 11/ 14 1021.5R
$$


USA.gov is the U.S. government's official web portal to all federal, state and local government web resources and services.